Time,TemperatureF,DewpointF,PressureIn,WindDirection,WindDirectionDegrees,WindSpeedMPH,WindSpeedGustMPH,Humidity,HourlyPrecipIn,Conditions,Clouds,dailyrainin,SolarRadiationWatts/m^2,SoftwareType,DateUTC
2013-12-08 00:03:00,16.0,13.0,-100.00,East,93,2.0,9.0,86,0.00,,,0.05,0.000000,,2013-12-08 05:03:00,
2013-12-08 00:43:00,17.0,14.0,-100.00,East,96,3.0,8.0,87,0.00,,,0.05,0.000000,,2013-12-08 05:43:00,
2013-12-08 00:53:00,17.0,14.0,-100.00,East,96,3.0,8.0,87,0.00,,,0.05,0.000000,,2013-12-08 05:53:00,
2013-12-08 01:02:00,17.0,14.0,-100.00,East,96,3.0,8.0,87,0.00,,,0.05,0.000000,,2013-12-08 06:02:00,
2013-12-08 01:42:00,17.0,14.0,-100.00,East,82,3.0,7.0,88,0.00,,,0.05,0.000000,,2013-12-08 06:42:00,
2013-12-08 01:52:00,17.0,14.0,-100.00,East,82,3.0,7.0,88,0.00,,,0.05,0.000000,,2013-12-08 06:52:00,
2013-12-08 02:02:00,17.0,14.0,-100.00,East,82,3.0,7.0,88,0.00,,,0.05,0.000000,,2013-12-08 07:02:00,
2013-12-08 02:42:00,18.0,15.0,-100.00,ENE,74,3.0,9.0,88,0.00,,,0.05,0.000000,,2013-12-08 07:42:00,
2013-12-08 02:53:00,18.0,15.0,-100.00,ENE,74,3.0,9.0,88,0.00,,,0.05,0.000000,,2013-12-08 07:53:00,
2013-12-08 03:02:00,18.0,15.0,-100.00,ENE,74,3.0,9.0,88,0.00,,,0.05,0.000000,,2013-12-08 08:02:00,
2013-12-08 03:43:00,19.0,16.0,-100.00,ESE,107,3.0,8.0,88,0.00,,,0.05,0.000000,,2013-12-08 08:43:00,
2013-12-08 03:52:00,19.0,16.0,-100.00,ESE,107,3.0,8.0,88,0.00,,,0.05,0.000000,,2013-12-08 08:52:00,
2013-12-08 04:02:00,19.0,16.0,-100.00,ESE,107,3.0,8.0,88,0.00,,,0.05,0.000000,,2013-12-08 09:02:00,
2013-12-08 04:43:00,19.0,16.0,-100.00,East,90,4.0,11.0,88,0.00,,,0.05,0.000000,,2013-12-08 09:43:00,
2013-12-08 04:53:00,19.0,16.0,-100.00,East,90,4.0,11.0,88,0.00,,,0.05,0.000000,,2013-12-08 09:53:00,
2013-12-08 05:03:00,19.0,16.0,-100.00,East,90,4.0,11.0,88,0.00,,,0.05,0.000000,,2013-12-08 10:03:00,
2013-12-08 05:43:00,20.0,17.0,-100.00,ESE,103,4.0,10.0,88,0.00,,,0.05,0.000000,,2013-12-08 10:43:00,
2013-12-08 05:53:00,20.0,17.0,-100.00,ESE,103,4.0,10.0,88,0.00,,,0.05,0.000000,,2013-12-08 10:53:00,
2013-12-08 06:02:00,20.0,17.0,-100.00,ESE,103,4.0,10.0,88,0.00,,,0.05,0.000000,,2013-12-08 11:02:00,
2013-12-08 06:43:00,20.0,17.0,-100.00,East,90,5.0,11.0,88,0.00,,,0.05,0.000000,,2013-12-08 11:43:00,
2013-12-08 06:52:00,20.0,17.0,-100.00,East,90,5.0,11.0,88,0.00,,,0.05,0.000000,,2013-12-08 11:52:00,
2013-12-08 07:02:00,20.0,17.0,-100.00,East,90,5.0,11.0,88,0.00,,,0.05,0.000000,,2013-12-08 12:02:00,
2013-12-08 07:42:00,20.0,17.0,-100.00,East,81,4.0,11.0,89,0.00,,,0.05,0.000000,,2013-12-08 12:42:00,
2013-12-08 07:52:00,20.0,17.0,-100.00,East,81,4.0,11.0,89,0.00,,,0.05,0.000000,,2013-12-08 12:52:00,
2013-12-08 08:01:00,20.0,17.0,-100.00,East,81,4.0,11.0,89,0.00,,,0.05,0.000000,,2013-12-08 13:01:00,
2013-12-08 08:42:00,20.0,17.0,-100.00,East,97,5.0,11.0,88,0.00,,,0.05,0.000000,,2013-12-08 13:42:00,
2013-12-08 08:52:00,20.0,17.0,-100.00,East,97,5.0,11.0,88,0.00,,,0.05,0.000000,,2013-12-08 13:52:00,
2013-12-08 09:02:00,20.0,17.0,-100.00,East,97,5.0,11.0,88,0.00,,,0.05,0.000000,,2013-12-08 14:02:00,
2013-12-08 09:42:00,21.0,19.0,-100.00,East,86,3.0,10.0,91,0.00,,,0.05,9.000000,,2013-12-08 14:42:00,
2013-12-08 09:52:00,21.0,19.0,-100.00,East,86,3.0,10.0,91,0.00,,,0.05,9.000000,,2013-12-08 14:52:00,
2013-12-08 10:02:00,21.0,19.0,-100.00,East,86,3.0,10.0,91,0.00,,,0.05,9.000000,,2013-12-08 15:02:00,
2013-12-08 10:43:00,23.0,21.0,-100.00,ESE,108,4.0,11.0,91,0.00,,,0.05,40.000000,,2013-12-08 15:43:00,
2013-12-08 10:54:00,23.0,21.0,-100.00,ESE,108,4.0,11.0,91,0.00,,,0.05,40.000000,,2013-12-08 15:54:00,
2013-12-08 11:04:00,23.0,21.0,-100.00,ESE,108,4.0,11.0,91,0.00,,,0.05,40.000000,,2013-12-08 16:04:00,
2013-12-08 11:43:00,24.0,22.0,-100.00,ESE,122,4.0,11.0,91,0.00,,,0.05,45.000000,,2013-12-08 16:43:00,
2013-12-08 11:53:00,24.0,22.0,-100.00,ESE,122,4.0,11.0,91,0.00,,,0.05,45.000000,,2013-12-08 16:53:00,
2013-12-08 12:02:00,24.0,22.0,-100.00,ESE,122,4.0,11.0,91,0.00,,,0.05,45.000000,,2013-12-08 17:02:00,
2013-12-08 12:43:00,25.0,23.0,-100.00,East,101,4.0,11.0,91,0.00,,,-99.99,66.000000,,2013-12-08 17:43:00,
2013-12-08 12:52:00,25.0,23.0,-100.00,East,101,4.0,11.0,91,0.00,,,-99.99,66.000000,,2013-12-08 17:52:00,
2013-12-08 13:02:00,25.0,23.0,-100.00,East,101,4.0,11.0,91,0.00,,,-99.99,66.000000,,2013-12-08 18:02:00,
2013-12-08 13:42:00,26.0,24.0,-100.00,ESE,104,4.0,9.0,93,0.00,,,0.01,62.000000,,2013-12-08 18:42:00,
2013-12-08 13:52:00,26.0,24.0,-100.00,ESE,104,4.0,9.0,93,0.00,,,0.01,62.000000,,2013-12-08 18:52:00,
2013-12-08 14:02:00,26.0,24.0,-100.00,ESE,104,4.0,9.0,93,0.00,,,0.01,62.000000,,2013-12-08 19:02:00,
2013-12-08 14:42:00,27.0,25.0,-100.00,ESE,113,4.0,12.0,93,0.00,,,0.00,54.000000,,2013-12-08 19:42:00,
2013-12-08 14:52:00,27.0,25.0,-100.00,ESE,113,4.0,12.0,93,0.00,,,0.00,54.000000,,2013-12-08 19:52:00,
2013-12-08 15:02:00,27.0,25.0,-100.00,ESE,113,4.0,12.0,93,0.00,,,0.00,54.000000,,2013-12-08 20:02:00,
2013-12-08 15:42:00,27.0,26.0,-100.00,SE,137,4.0,10.0,94,0.00,,,0.00,46.000000,,2013-12-08 20:42:00,
2013-12-08 15:53:00,27.0,26.0,-100.00,SE,137,4.0,10.0,94,0.00,,,0.00,46.000000,,2013-12-08 20:53:00,
2013-12-08 16:02:00,27.0,26.0,-100.00,SE,137,4.0,10.0,94,0.00,,,0.00,46.000000,,2013-12-08 21:02:00,
2013-12-08 16:43:00,27.0,26.0,-100.00,SE,132,2.0,8.0,97,0.00,,,0.00,29.000000,,2013-12-08 21:43:00,
2013-12-08 16:53:00,27.0,26.0,-100.00,SE,132,2.0,8.0,97,0.00,,,0.00,29.000000,,2013-12-08 21:53:00,
2013-12-08 17:03:00,27.0,26.0,-100.00,SE,132,2.0,8.0,97,0.00,,,0.00,29.000000,,2013-12-08 22:03:00,
2013-12-08 17:43:00,27.0,27.0,-100.00,SSE,161,3.0,7.0,98,0.00,,,0.00,8.000000,,2013-12-08 22:43:00,
2013-12-08 17:53:00,27.0,27.0,-100.00,SSE,161,3.0,7.0,98,0.00,,,0.00,8.000000,,2013-12-08 22:53:00,
2013-12-08 18:03:00,27.0,27.0,-100.00,SSE,161,3.0,7.0,98,0.00,,,0.00,8.000000,,2013-12-08 23:03:00,
2013-12-08 19:42:00,28.0,28.0,-100.00,SSE,163,2.0,6.0,99,0.00,,,0.00,0.000000,,2013-12-09 00:42:00,
2013-12-08 19:52:00,28.0,28.0,-100.00,SSE,163,2.0,6.0,99,0.00,,,0.00,0.000000,,2013-12-09 00:52:00,
2013-12-08 20:02:00,28.0,28.0,-100.00,SSE,163,2.0,6.0,99,0.00,,,0.00,0.000000,,2013-12-09 01:02:00,
2013-12-08 20:42:00,29.0,29.0,-100.00,SSE,158,0.0,5.0,99,0.00,,,0.00,0.000000,,2013-12-09 01:42:00,
2013-12-08 20:52:00,29.0,29.0,-100.00,SSE,158,0.0,5.0,99,0.00,,,0.00,0.000000,,2013-12-09 01:52:00,
2013-12-08 21:02:00,29.0,29.0,-100.00,SSE,158,0.0,5.0,99,0.00,,,0.00,0.000000,,2013-12-09 02:02:00,
2013-12-08 21:42:00,29.0,29.0,-100.00,WSW,249,1.0,4.0,99,0.00,,,0.00,0.000000,,2013-12-09 02:42:00,
2013-12-08 21:53:00,29.0,29.0,-100.00,WSW,249,1.0,4.0,99,0.00,,,0.00,0.000000,,2013-12-09 02:53:00,
2013-12-08 22:02:00,29.0,29.0,-100.00,WSW,249,1.0,4.0,99,0.00,,,0.00,0.000000,,2013-12-09 03:02:00,
2013-12-08 22:43:00,30.0,30.0,-100.00,WSW,257,3.0,7.0,99,0.00,,,0.00,0.000000,,2013-12-09 03:43:00,
2013-12-08 22:54:00,30.0,30.0,-100.00,WSW,257,3.0,7.0,99,0.00,,,0.00,0.000000,,2013-12-09 03:54:00,
2013-12-08 23:03:00,30.0,30.0,-100.00,WSW,257,3.0,7.0,99,0.00,,,0.00,0.000000,,2013-12-09 04:03:00,
2013-12-08 23:43:00,30.0,30.0,-100.00,West,260,4.0,9.0,100,0.00,,,0.00,0.000000,,2013-12-09 04:43:00,
2013-12-08 23:53:00,30.0,30.0,-100.00,West,260,4.0,9.0,100,0.00,,,0.00,0.000000,,2013-12-09 04:53:00,